Time,TemperatureF,DewpointF,PressureIn,WindDirection,WindDirectionDegrees,WindSpeedMPH,WindSpeedGustMPH,Humidity,HourlyPrecipIn,Conditions,Clouds,dailyrainin,SoftwareType,DateUTC
2013-04-14 00:00:00,42.8,38.6,29.98,WSW,247,0.0,0.0,85,0.00,,BKN110,0.00,VWS V14.01,2013-04-14 04:00:00,
2013-04-14 00:01:00,42.8,38.6,29.98,WSW,247,0.0,0.0,85,0.00,,BKN110,0.00,VWS V14.01,2013-04-14 04:01:00,
2013-04-14 00:06:00,42.8,39.1,29.98,WSW,248,0.0,0.0,87,0.00,,BKN110,0.00,VWS V14.01,2013-04-14 04:06:00,
2013-04-14 00:12:00,42.8,39.1,29.98,WSW,247,0.0,0.0,87,0.00,,BKN110,0.00,VWS V14.01,2013-04-14 04:12:00,
2013-04-14 00:17:00,42.8,39.6,29.98,WSW,247,0.0,0.0,88,0.00,,BKN110,0.00,VWS V14.01,2013-04-14 04:17:00,
2013-04-14 00:22:00,42.8,39.6,29.98,WSW,247,0.0,0.0,88,0.00,,BKN110,0.00,VWS V14.01,2013-04-14 04:22:00,
2013-04-14 00:28:00,42.6,39.9,29.98,WSW,247,0.0,0.0,90,0.00,,BKN110,0.00,VWS V14.01,2013-04-14 04:28:00,
2013-04-14 00:33:00,42.6,40.4,29.98,WSW,247,0.0,0.0,92,0.00,,BKN110,0.00,VWS V14.01,2013-04-14 04:33:00,
2013-04-14 00:38:00,42.4,39.8,29.98,WSW,247,0.0,0.0,90,0.00,,BKN110,0.00,VWS V14.01,2013-04-14 04:38:00,
2013-04-14 00:43:00,42.1,39.4,30.01,WSW,247,0.0,0.0,90,0.00,,SCT110,0.00,VWS V14.01,2013-04-14 04:43:00,
2013-04-14 00:48:00,41.7,39.0,30.01,WSW,247,0.0,0.0,90,0.00,,SCT110,0.00,VWS V14.01,2013-04-14 04:48:00,
2013-04-14 00:53:00,41.5,38.9,29.98,WSW,247,0.0,0.0,90,0.00,,SCT110,0.00,VWS V14.01,2013-04-14 04:53:00,
2013-04-14 00:59:00,41.4,38.7,29.98,WSW,247,0.0,0.0,90,0.00,,SCT110,0.00,VWS V14.01,2013-04-14 04:59:00,
2013-04-14 01:04:00,41.2,38.5,29.98,WSW,247,0.0,0.0,90,0.00,,SCT110,0.00,VWS V14.01,2013-04-14 05:04:00,
2013-04-14 01:09:00,41.0,38.3,29.98,WSW,247,0.0,0.0,90,0.00,,SCT110,0.00,VWS V14.01,2013-04-14 05:09:00,
2013-04-14 01:14:00,41.0,38.8,29.98,WSW,247,0.0,0.0,92,0.00,,SCT110,0.00,VWS V14.01,2013-04-14 05:14:00,
2013-04-14 01:19:00,41.2,39.0,29.98,WSW,247,0.0,0.0,92,0.00,,SCT110,0.00,VWS V14.01,2013-04-14 05:19:00,
2013-04-14 01:25:00,41.0,38.8,29.98,WSW,247,0.0,0.0,92,0.00,,SCT110,0.00,VWS V14.01,2013-04-14 05:25:00,
2013-04-14 01:30:00,41.2,41.2,29.98,WSW,246,0.0,0.0,100,0.00,,SCT110,0.00,VWS V14.01,2013-04-14 05:30:00,
2013-04-14 01:35:00,41.2,41.2,29.98,WSW,247,0.0,0.0,100,0.00,,SCT110,0.00,VWS V14.01,2013-04-14 05:35:00,
2013-04-14 01:40:00,41.2,41.2,29.98,WSW,247,0.0,0.0,100,0.00,,SCT110,0.00,VWS V14.01,2013-04-14 05:40:00,
2013-04-14 01:45:00,41.0,41.0,29.98,WSW,242,0.0,0.0,100,0.00,,SCT110,0.00,VWS V14.01,2013-04-14 05:45:00,
2013-04-14 01:50:00,41.0,41.0,29.98,WSW,247,0.0,0.0,100,0.00,,SCT110,0.00,VWS V14.01,2013-04-14 05:50:00,
2013-04-14 01:56:00,41.0,41.0,29.98,WSW,247,0.0,0.0,100,0.00,,SCT110,0.00,VWS V14.01,2013-04-14 05:56:00,
2013-04-14 02:01:00,41.0,41.0,29.98,WSW,247,0.0,0.0,100,0.00,,SCT110,0.00,VWS V14.01,2013-04-14 06:01:00,
2013-04-14 02:06:00,40.8,40.8,29.98,WSW,247,0.0,0.0,100,0.00,,SCT110,0.00,VWS V14.01,2013-04-14 06:06:00,
2013-04-14 02:11:00,40.6,40.3,29.98,WSW,247,0.0,0.0,99,0.00,,SCT110,0.00,VWS V14.01,2013-04-14 06:11:00,
2013-04-14 02:17:00,40.5,40.1,29.98,WSW,247,0.0,0.0,99,0.00,,SCT110,0.00,VWS V14.01,2013-04-14 06:17:00,
2013-04-14 02:22:00,40.6,40.6,29.98,WSW,247,0.0,0.0,100,0.00,,SCT110,0.00,VWS V14.01,2013-04-14 06:22:00,
2013-04-14 02:27:00,40.6,40.6,29.98,WSW,247,0.0,0.0,100,0.00,,SCT110,0.00,VWS V14.01,2013-04-14 06:27:00,
2013-04-14 02:32:00,40.6,40.6,29.98,WSW,247,0.0,0.0,100,0.00,,SCT110,0.00,VWS V14.01,2013-04-14 06:32:00,
2013-04-14 02:37:00,40.8,40.8,29.98,WSW,247,0.0,0.0,100,0.00,,SCT110,0.00,VWS V14.01,2013-04-14 06:37:00,
2013-04-14 02:43:00,40.8,40.8,29.98,WSW,247,0.0,0.0,100,0.00,,FEW095,0.00,VWS V14.01,2013-04-14 06:43:00,
2013-04-14 02:48:00,40.6,40.6,29.98,WSW,247,0.0,0.0,100,0.00,,FEW095,0.00,VWS V14.01,2013-04-14 06:48:00,
2013-04-14 02:54:00,40.3,40.3,29.98,WSW,247,0.0,0.0,100,0.00,,FEW095,0.00,VWS V14.01,2013-04-14 06:54:00,
2013-04-14 02:59:00,40.3,40.3,29.98,WSW,247,0.0,0.0,100,0.00,,FEW095,0.00,VWS V14.01,2013-04-14 06:59:00,
2013-04-14 03:04:00,40.1,40.1,29.98,WSW,247,0.0,0.0,100,0.00,,FEW095,0.00,VWS V14.01,2013-04-14 07:04:00,
2013-04-14 03:10:00,40.3,40.3,29.98,WSW,246,0.0,0.0,100,0.00,,FEW095,0.00,VWS V14.01,2013-04-14 07:10:00,
2013-04-14 03:15:00,40.3,40.3,29.98,WSW,247,0.0,0.0,100,0.00,,FEW095,0.00,VWS V14.01,2013-04-14 07:15:00,
2013-04-14 03:20:00,40.3,40.3,29.98,WSW,247,0.0,0.0,100,0.00,,FEW095,0.00,VWS V14.01,2013-04-14 07:20:00,
2013-04-14 03:25:00,40.1,40.1,29.98,WSW,247,0.0,0.0,100,0.00,,FEW095,0.00,VWS V14.01,2013-04-14 07:25:00,
2013-04-14 03:30:00,40.1,40.1,29.98,WSW,248,0.0,0.0,100,0.00,,FEW095,0.00,VWS V14.01,2013-04-14 07:30:00,
2013-04-14 03:35:00,39.9,39.9,29.98,WSW,247,0.0,0.0,100,0.00,,FEW095,0.00,VWS V14.01,2013-04-14 07:35:00,
2013-04-14 03:41:00,39.9,39.9,29.98,WSW,245,0.0,0.0,100,0.00,,SCT095,0.00,VWS V14.01,2013-04-14 07:41:00,
2013-04-14 03:46:00,39.9,39.9,29.98,WSW,247,0.0,0.0,100,0.00,,SCT095,0.00,VWS V14.01,2013-04-14 07:46:00,
2013-04-14 03:51:00,39.9,39.9,29.98,WSW,247,0.0,0.0,100,0.00,,SCT095,0.00,VWS V14.01,2013-04-14 07:51:00,
2013-04-14 03:56:00,40.1,40.1,29.98,WSW,246,0.0,0.0,100,0.00,,SCT095,0.00,VWS V14.01,2013-04-14 07:56:00,
2013-04-14 04:01:00,40.5,40.5,29.98,WSW,247,0.0,0.0,100,0.00,,SCT095,0.00,VWS V14.01,2013-04-14 08:01:00,
2013-04-14 04:07:00,41.0,41.0,29.98,WSW,247,0.0,0.0,100,0.00,,SCT095,0.00,VWS V14.01,2013-04-14 08:07:00,
2013-04-14 04:12:00,41.2,41.2,30.01,NNW,342,0.0,0.0,100,0.00,,SCT095,0.00,VWS V14.01,2013-04-14 08:12:00,
2013-04-14 04:17:00,41.5,41.5,30.01,NNW,342,0.0,0.0,100,0.00,,SCT095,0.00,VWS V14.01,2013-04-14 08:17:00,
2013-04-14 04:22:00,42.1,42.1,30.01,NNW,342,0.0,0.0,100,0.00,,SCT095,0.00,VWS V14.01,2013-04-14 08:22:00,
2013-04-14 04:28:00,42.1,42.1,30.01,NNW,342,0.0,0.0,100,0.00,,SCT095,0.00,VWS V14.01,2013-04-14 08:28:00,
2013-04-14 04:33:00,42.1,42.1,30.01,NNW,342,0.0,0.0,100,0.00,,SCT095,0.00,VWS V14.01,2013-04-14 08:33:00,
2013-04-14 04:38:00,42.1,42.1,30.01,NNW,342,0.0,0.0,100,0.00,,SCT095,0.00,VWS V14.01,2013-04-14 08:38:00,
2013-04-14 04:43:00,42.1,42.1,30.01,NNW,342,0.0,0.0,100,0.00,,OVC065,0.00,VWS V14.01,2013-04-14 08:43:00,
2013-04-14 04:48:00,41.9,41.9,30.01,SE,138,0.0,0.0,100,0.00,,OVC065,0.00,VWS V14.01,2013-04-14 08:48:00,
2013-04-14 04:54:00,41.7,41.7,29.98,SE,138,0.0,0.0,100,0.00,,OVC065,0.00,VWS V14.01,2013-04-14 08:54:00,
2013-04-14 04:59:00,41.7,41.7,29.98,SE,138,0.0,0.0,100,0.00,,OVC065,0.00,VWS V14.01,2013-04-14 08:59:00,
2013-04-14 05:04:00,41.9,41.9,29.98,North,3,0.0,0.0,100,0.00,,OVC065,0.00,VWS V14.01,2013-04-14 09:04:00,
2013-04-14 05:09:00,41.7,41.7,29.98,North,10,0.0,0.0,100,0.00,,OVC065,0.00,VWS V14.01,2013-04-14 09:09:00,
2013-04-14 05:14:00,41.5,41.5,29.98,North,10,0.0,0.0,100,0.00,,OVC065,0.00,VWS V14.01,2013-04-14 09:14:00,
2013-04-14 05:19:00,41.4,41.4,29.98,North,10,0.0,0.0,100,0.00,,OVC065,0.00,VWS V14.01,2013-04-14 09:19:00,
2013-04-14 05:24:00,41.2,41.2,29.98,NE,44,0.0,0.0,100,0.00,,OVC065,0.00,VWS V14.01,2013-04-14 09:24:00,
2013-04-14 05:30:00,41.0,41.0,29.98,ENE,58,0.0,0.0,100,0.00,,OVC065,0.00,VWS V14.01,2013-04-14 09:30:00,
2013-04-14 05:35:00,41.0,41.0,29.98,ENE,58,0.0,0.0,100,0.00,,OVC065,0.00,VWS V14.01,2013-04-14 09:35:00,
2013-04-14 05:40:00,41.0,41.0,29.98,NNE,31,3.7,5.6,100,0.00,,OVC065,0.00,VWS V14.01,2013-04-14 09:40:00,
2013-04-14 05:45:00,41.0,41.0,29.98,NE,43,5.2,8.5,100,0.00,,-RA,0.00,VWS V14.01,2013-04-14 09:45:00,
2013-04-14 05:50:00,41.0,41.0,29.98,NE,43,4.4,5.6,100,0.00,,-RA,0.00,VWS V14.01,2013-04-14 09:50:00,
2013-04-14 05:56:00,41.0,41.0,29.98,NE,43,0.0,0.0,100,0.00,,-RA,0.00,VWS V14.01,2013-04-14 09:56:00,
2013-04-14 06:01:00,41.0,41.0,29.98,NE,43,0.0,0.0,100,0.00,,-RA,0.00,VWS V14.01,2013-04-14 10:01:00,
2013-04-14 06:06:00,41.0,41.0,29.98,NE,43,0.0,0.0,100,0.00,,-RA,0.00,VWS V14.01,2013-04-14 10:06:00,
2013-04-14 06:11:00,41.2,41.2,29.95,ENE,72,5.2,8.5,100,0.00,,-RA,0.00,VWS V14.01,2013-04-14 10:11:00,
2013-04-14 06:16:00,41.2,41.2,29.95,East,86,0.0,4.7,100,0.00,,-RA,0.00,VWS V14.01,2013-04-14 10:16:00,
2013-04-14 06:21:00,41.2,41.2,29.95,East,86,0.0,0.0,100,0.00,,-RA,0.00,VWS V14.01,2013-04-14 10:21:00,
2013-04-14 06:27:00,41.4,41.4,29.95,ESE,102,0.0,0.0,100,0.00,,-RA,0.00,VWS V14.01,2013-04-14 10:27:00,
2013-04-14 06:32:00,41.4,41.4,29.95,East,83,6.6,9.4,100,0.00,,-RA,0.00,VWS V14.01,2013-04-14 10:32:00,
2013-04-14 06:37:00,41.7,41.7,29.95,ESE,116,0.0,4.7,100,0.00,,-RA,0.00,VWS V14.01,2013-04-14 10:37:00,
2013-04-14 06:42:00,42.1,42.1,29.95,ESE,116,0.0,0.0,100,0.00,,OVC095,0.00,VWS V14.01,2013-04-14 10:42:00,
2013-04-14 06:47:00,42.3,42.3,29.95,ESE,116,0.0,0.0,100,0.00,,OVC095,0.00,VWS V14.01,2013-04-14 10:47:00,
2013-04-14 06:53:00,42.3,42.3,29.95,ESE,116,0.0,0.0,100,0.00,,OVC095,0.00,VWS V14.01,2013-04-14 10:53:00,
2013-04-14 06:58:00,42.3,42.3,29.95,ESE,118,0.0,0.0,100,0.00,,OVC095,0.00,VWS V14.01,2013-04-14 10:58:00,
2013-04-14 07:03:00,42.3,42.3,29.95,ESE,116,0.0,0.0,100,0.00,,OVC095,0.00,VWS V14.01,2013-04-14 11:03:00,
2013-04-14 07:08:00,42.1,42.1,29.98,ESE,116,0.0,0.0,100,0.00,,OVC095,0.00,VWS V14.01,2013-04-14 11:08:00,
2013-04-14 07:13:00,42.1,42.1,29.98,ESE,116,0.0,0.0,100,0.00,,OVC095,0.00,VWS V14.01,2013-04-14 11:13:00,
2013-04-14 07:18:00,42.1,42.1,29.98,ESE,117,0.0,0.0,100,0.00,,OVC095,0.00,VWS V14.01,2013-04-14 11:18:00,
2013-04-14 07:24:00,42.3,42.3,29.98,ESE,116,0.0,0.0,100,0.00,,OVC095,0.00,VWS V14.01,2013-04-14 11:24:00,
2013-04-14 07:29:00,42.3,42.3,29.98,ESE,116,0.0,0.0,100,0.00,,OVC095,0.00,VWS V14.01,2013-04-14 11:29:00,
2013-04-14 07:34:00,42.4,42.4,29.98,ESE,116,0.0,0.0,100,0.00,,OVC095,0.00,VWS V14.01,2013-04-14 11:34:00,
2013-04-14 07:39:00,42.8,42.8,29.98,ESE,116,0.0,0.0,100,0.00,,OVC095,0.00,VWS V14.01,2013-04-14 11:39:00,
2013-04-14 07:44:00,43.0,43.0,29.98,ESE,116,0.0,0.0,100,0.00,,BKN080,0.00,VWS V14.01,2013-04-14 11:44:00,
2013-04-14 07:49:00,43.2,43.2,29.98,ESE,116,0.0,0.0,100,0.00,,BKN080,0.00,VWS V14.01,2013-04-14 11:49:00,
2013-04-14 07:55:00,43.3,43.3,29.98,ESE,116,0.0,0.0,100,0.00,,BKN080,0.00,VWS V14.01,2013-04-14 11:55:00,
2013-04-14 08:00:00,43.5,43.5,29.98,ESE,116,0.0,0.0,100,0.00,,BKN080,0.00,VWS V14.01,2013-04-14 12:00:00,
2013-04-14 08:05:00,43.9,43.9,29.98,ESE,116,0.0,0.0,100,0.00,,BKN080,0.00,VWS V14.01,2013-04-14 12:05:00,
2013-04-14 08:10:00,44.4,44.4,29.98,ESE,116,0.0,0.0,100,0.00,,BKN080,0.00,VWS V14.01,2013-04-14 12:10:00,
2013-04-14 08:15:00,44.8,44.8,29.98,ESE,116,0.0,0.0,100,0.00,,BKN080,0.00,VWS V14.01,2013-04-14 12:15:00,
2013-04-14 08:20:00,45.0,45.0,29.98,ESE,116,0.0,0.0,100,0.00,,BKN080,0.00,VWS V14.01,2013-04-14 12:20:00,
2013-04-14 08:26:00,45.3,45.3,29.98,ESE,116,0.0,0.0,100,0.00,,BKN080,0.00,VWS V14.01,2013-04-14 12:26:00,
2013-04-14 08:31:00,45.7,45.7,29.98,ESE,116,0.0,0.0,100,0.00,,BKN080,0.00,VWS V14.01,2013-04-14 12:31:00,
2013-04-14 08:36:00,46.2,46.2,29.98,ESE,115,0.0,0.0,100,0.00,,BKN080,0.00,VWS V14.01,2013-04-14 12:36:00,
2013-04-14 08:41:00,46.6,46.6,29.95,ESE,116,0.0,0.0,100,0.00,,BKN080,0.00,VWS V14.01,2013-04-14 12:41:00,
2013-04-14 08:46:00,47.1,47.1,29.95,ESE,116,0.0,0.0,100,0.00,,BKN080,0.00,VWS V14.01,2013-04-14 12:46:00,
2013-04-14 08:51:00,47.8,47.8,29.95,ESE,116,0.0,0.0,100,0.00,,FEW110,0.00,VWS V14.01,2013-04-14 12:51:00,
2013-04-14 08:57:00,48.6,48.6,29.95,ESE,116,0.0,6.6,100,0.00,,FEW110,0.00,VWS V14.01,2013-04-14 12:57:00,
2013-04-14 09:02:00,49.5,49.5,29.95,ESE,111,0.0,6.6,100,0.00,,FEW110,0.00,VWS V14.01,2013-04-14 13:02:00,
2013-04-14 09:07:00,50.4,50.4,29.95,SSE,150,8.9,11.3,100,0.00,,FEW110,0.00,VWS V14.01,2013-04-14 13:07:00,
2013-04-14 09:12:00,51.3,50.4,29.95,SSW,193,8.1,13.2,97,0.00,,FEW110,0.00,VWS V14.01,2013-04-14 13:12:00,
2013-04-14 09:17:00,51.6,49.3,29.95,SE,131,3.7,12.2,92,0.00,,FEW110,0.00,VWS V14.01,2013-04-14 13:17:00,
2013-04-14 09:23:00,51.6,48.3,29.95,SSE,150,8.1,10.3,88,0.00,,FEW110,0.00,VWS V14.01,2013-04-14 13:23:00,
2013-04-14 09:28:00,51.6,47.8,29.95,SSE,164,5.9,10.3,87,0.00,,FEW110,0.00,VWS V14.01,2013-04-14 13:28:00,
2013-04-14 09:33:00,51.8,47.4,29.95,ESE,120,6.6,8.5,85,0.00,,FEW110,0.00,VWS V14.01,2013-04-14 13:33:00,
2013-04-14 09:38:00,52.0,47.6,29.95,ESE,123,3.7,5.6,85,0.00,,FEW110,0.00,VWS V14.01,2013-04-14 13:38:00,
2013-04-14 09:43:00,52.2,47.3,29.95,ESE,103,6.6,10.3,83,0.00,,OVC100,0.00,VWS V14.01,2013-04-14 13:43:00,
2013-04-14 09:48:00,52.5,47.1,29.95,SSE,160,6.6,8.5,82,0.00,,OVC100,0.00,VWS V14.01,2013-04-14 13:48:00,
2013-04-14 09:53:00,52.7,47.2,29.95,East,92,5.9,8.5,82,0.00,,OVC100,0.00,VWS V14.01,2013-04-14 13:53:00,
2013-04-14 09:59:00,53.2,47.2,29.95,SSE,149,5.9,7.5,80,0.00,,OVC100,0.00,VWS V14.01,2013-04-14 13:59:00,
2013-04-14 10:04:00,54.0,47.3,29.95,SE,137,6.6,12.2,78,0.00,,OVC100,0.00,VWS V14.01,2013-04-14 14:04:00,
2013-04-14 10:09:00,54.5,47.9,29.95,SE,138,4.4,10.3,78,0.00,,OVC100,0.00,VWS V14.01,2013-04-14 14:09:00,
2013-04-14 10:14:00,54.7,47.5,29.95,SSE,153,8.9,11.3,76,0.00,,OVC100,0.00,VWS V14.01,2013-04-14 14:14:00,
2013-04-14 10:19:00,55.0,47.8,29.95,SE,131,4.4,7.5,76,0.00,,OVC100,0.00,VWS V14.01,2013-04-14 14:19:00,
2013-04-14 10:24:00,55.6,47.7,29.95,SE,143,9.6,17.4,75,0.00,,OVC100,0.00,VWS V14.01,2013-04-14 14:24:00,
2013-04-14 10:30:00,56.1,48.2,29.95,SE,145,5.2,8.5,75,0.00,,OVC100,0.00,VWS V14.01,2013-04-14 14:30:00,
2013-04-14 10:35:00,56.5,48.0,29.95,ESE,107,5.2,10.3,73,0.00,,OVC100,0.00,VWS V14.01,2013-04-14 14:35:00,
2013-04-14 10:40:00,56.7,46.9,29.95,ESE,115,8.9,12.2,70,0.00,,OVC100,0.00,VWS V14.01,2013-04-14 14:40:00,
2013-04-14 10:45:00,57.0,47.2,29.95,ESE,121,8.9,16.0,70,0.00,,OVC240,0.00,VWS V14.01,2013-04-14 14:45:00,
2013-04-14 10:50:00,57.7,47.9,29.95,ESE,109,6.6,10.3,70,0.00,,OVC240,0.00,VWS V14.01,2013-04-14 14:50:00,
2013-04-14 10:56:00,58.5,47.3,29.92,East,83,10.3,13.2,66,0.00,,OVC240,0.00,VWS V14.01,2013-04-14 14:56:00,
2013-04-14 11:01:00,58.6,46.0,29.92,SE,133,9.6,13.2,63,0.00,,OVC240,0.00,VWS V14.01,2013-04-14 15:01:00,
2013-04-14 11:06:00,59.0,46.4,29.92,SSW,213,5.9,7.5,63,0.00,,OVC240,0.00,VWS V14.01,2013-04-14 15:06:00,
2013-04-14 11:12:00,59.5,47.6,29.92,SSE,163,9.6,12.2,65,0.00,,OVC240,0.00,VWS V14.01,2013-04-14 15:12:00,
2013-04-14 11:17:00,60.6,47.9,29.92,South,173,8.9,11.3,63,0.00,,OVC240,0.00,VWS V14.01,2013-04-14 15:17:00,
2013-04-14 11:22:00,61.3,47.9,29.92,SSW,193,5.9,7.5,61,0.00,,OVC240,0.00,VWS V14.01,2013-04-14 15:22:00,
2013-04-14 11:27:00,61.7,48.2,29.92,SE,127,6.6,10.3,61,0.00,,OVC240,0.00,VWS V14.01,2013-04-14 15:27:00,
2013-04-14 11:32:00,62.4,48.1,29.92,SSE,162,0.0,14.1,60,0.00,,OVC240,0.00,VWS V14.01,2013-04-14 15:32:00,
2013-04-14 11:38:00,62.8,48.5,29.92,SSE,160,6.6,11.3,60,0.00,,OVC240,0.00,VWS V14.01,2013-04-14 15:38:00,
2013-04-14 11:43:00,62.8,48.5,29.92,SSE,168,0.0,6.6,60,0.00,,OVC250,0.00,VWS V14.01,2013-04-14 15:43:00,
2013-04-14 11:48:00,63.1,48.8,29.92,SSE,164,5.2,6.6,60,0.00,,OVC250,0.00,VWS V14.01,2013-04-14 15:48:00,
2013-04-14 11:53:00,63.5,49.2,29.92,SE,130,8.9,11.3,60,0.00,,OVC250,0.00,VWS V14.01,2013-04-14 15:53:00,
2013-04-14 11:58:00,63.9,48.7,29.92,SE,138,11.1,14.1,58,0.00,,OVC250,0.00,VWS V14.01,2013-04-14 15:58:00,
2013-04-14 12:03:00,64.2,49.8,29.92,ESE,123,11.8,15.0,60,0.00,,OVC250,0.00,VWS V14.01,2013-04-14 16:03:00,
2013-04-14 12:08:00,64.4,49.2,29.92,SSE,149,5.9,13.2,58,0.00,,OVC250,0.00,VWS V14.01,2013-04-14 16:08:00,
2013-04-14 12:14:00,64.8,49.6,29.92,SSE,154,3.7,10.3,58,0.00,,OVC250,0.00,VWS V14.01,2013-04-14 16:14:00,
2013-04-14 12:19:00,65.3,49.3,29.92,South,181,9.6,12.2,56,0.00,,OVC250,0.00,VWS V14.01,2013-04-14 16:19:00,
2013-04-14 12:24:00,65.7,49.6,29.89,SSW,192,5.9,11.3,56,0.00,,OVC250,0.00,VWS V14.01,2013-04-14 16:24:00,
2013-04-14 12:29:00,66.0,49.9,29.89,South,185,6.6,8.5,56,0.00,,OVC250,0.00,VWS V14.01,2013-04-14 16:29:00,
2013-04-14 12:34:00,66.4,49.5,29.89,South,178,6.6,11.3,54,0.00,,OVC250,0.00,VWS V14.01,2013-04-14 16:34:00,
2013-04-14 12:39:00,66.9,50.0,29.89,SE,128,8.1,12.2,54,0.00,,OVC250,0.00,VWS V14.01,2013-04-14 16:39:00,
2013-04-14 12:45:00,67.3,50.3,29.89,ESE,110,8.9,11.3,54,0.00,,OVC250,0.00,VWS V14.01,2013-04-14 16:45:00,
2013-04-14 12:50:00,67.6,48.9,29.89,SSE,151,5.2,10.3,51,0.00,,OVC250,0.00,VWS V14.01,2013-04-14 16:50:00,
2013-04-14 12:55:00,68.2,48.5,29.89,SE,125,12.5,16.9,49,0.00,,OVC250,0.00,VWS V14.01,2013-04-14 16:55:00,
2013-04-14 13:00:00,68.4,47.7,29.89,SSE,164,6.6,8.5,48,0.00,,OVC250,0.00,VWS V14.01,2013-04-14 17:00:00,
2013-04-14 13:06:00,68.5,46.9,29.89,South,187,6.6,13.2,46,0.00,,OVC250,0.00,VWS V14.01,2013-04-14 17:06:00,
2013-04-14 13:11:00,68.9,47.2,29.89,SSE,157,10.3,13.2,46,0.00,,OVC250,0.00,VWS V14.01,2013-04-14 17:11:00,
2013-04-14 13:16:00,69.1,47.4,29.89,SE,146,5.9,7.5,46,0.00,,OVC250,0.00,VWS V14.01,2013-04-14 17:16:00,
2013-04-14 13:21:00,68.9,46.2,29.89,ESE,116,10.3,21.1,44,0.00,,OVC250,0.00,VWS V14.01,2013-04-14 17:21:00,
2013-04-14 13:26:00,68.7,47.1,29.89,ESE,110,9.6,12.2,46,0.00,,OVC250,0.00,VWS V14.01,2013-04-14 17:26:00,
2013-04-14 13:32:00,68.9,46.2,29.89,SE,142,5.9,16.0,44,0.00,,OVC250,0.00,VWS V14.01,2013-04-14 17:32:00,
2013-04-14 13:37:00,68.9,47.2,29.89,ESE,120,5.9,12.2,46,0.00,,OVC250,0.00,VWS V14.01,2013-04-14 17:37:00,
2013-04-14 13:42:00,69.1,47.4,29.89,SE,132,13.3,16.9,46,0.00,,OVC220,0.00,VWS V14.01,2013-04-14 17:42:00,
2013-04-14 13:47:00,69.1,47.4,29.89,SE,139,12.5,16.0,46,0.00,,OVC220,0.00,VWS V14.01,2013-04-14 17:47:00,
2013-04-14 13:53:00,69.4,47.7,29.89,ESE,108,4.4,5.6,46,0.00,,OVC220,0.00,VWS V14.01,2013-04-14 17:53:00,
2013-04-14 13:58:00,70.0,48.2,29.89,SE,134,6.6,12.2,46,0.00,,OVC220,0.00,VWS V14.01,2013-04-14 17:58:00,
2013-04-14 14:03:00,70.3,47.5,29.89,SE,124,9.6,16.9,44,0.00,,OVC220,0.00,VWS V14.01,2013-04-14 18:03:00,
2013-04-14 14:08:00,70.3,48.5,29.86,SE,139,10.3,13.2,46,0.00,,OVC220,0.00,VWS V14.01,2013-04-14 18:08:00,
2013-04-14 14:13:00,70.9,48.0,29.86,ESE,104,6.6,13.2,44,0.00,,OVC220,0.00,VWS V14.01,2013-04-14 18:13:00,
2013-04-14 14:19:00,71.1,47.2,29.86,South,169,5.9,13.2,42,0.00,,OVC220,0.00,VWS V14.01,2013-04-14 18:19:00,
2013-04-14 14:24:00,71.2,47.3,29.86,SE,132,12.5,18.3,42,0.00,,OVC220,0.00,VWS V14.01,2013-04-14 18:24:00,
2013-04-14 14:29:00,71.6,47.6,29.86,East,88,11.8,15.0,42,0.00,,OVC220,0.00,VWS V14.01,2013-04-14 18:29:00,
2013-04-14 14:34:00,71.6,46.5,29.86,SE,137,12.5,16.0,41,0.00,,OVC220,0.00,VWS V14.01,2013-04-14 18:34:00,
2013-04-14 14:39:00,71.6,46.5,29.86,ESE,106,8.1,10.3,41,0.00,,OVC220,0.00,VWS V14.01,2013-04-14 18:39:00,
2013-04-14 14:44:00,72.0,46.9,29.86,SSW,206,13.7,21.1,41,0.00,,OVC190,0.00,VWS V14.01,2013-04-14 18:44:00,
2013-04-14 14:49:00,72.3,46.1,29.86,SSE,160,8.9,11.3,39,0.00,,OVC190,0.00,VWS V14.01,2013-04-14 18:49:00,
2013-04-14 14:55:00,72.9,45.4,29.86,West,261,13.7,17.4,37,0.00,,OVC190,0.00,VWS V14.01,2013-04-14 18:55:00,
2013-04-14 15:00:00,73.0,45.5,29.86,SSE,158,6.6,8.5,37,0.00,,OVC190,0.00,VWS V14.01,2013-04-14 19:00:00,
2013-04-14 15:05:00,73.0,45.5,29.86,South,171,5.9,7.5,37,0.00,,OVC190,0.00,VWS V14.01,2013-04-14 19:05:00,
2013-04-14 15:10:00,73.0,45.5,29.86,SE,139,6.6,12.2,37,0.00,,OVC190,0.00,VWS V14.01,2013-04-14 19:10:00,
2013-04-14 15:15:00,72.9,45.4,29.86,SSW,202,10.3,13.2,37,0.00,,OVC190,0.00,VWS V14.01,2013-04-14 19:15:00,
2013-04-14 15:21:00,72.7,45.2,29.86,South,179,8.9,11.3,37,0.00,,OVC190,0.00,VWS V14.01,2013-04-14 19:21:00,
2013-04-14 15:26:00,72.9,45.4,29.83,ESE,113,10.3,13.2,37,0.00,,OVC190,0.00,VWS V14.01,2013-04-14 19:26:00,
2013-04-14 15:31:00,72.9,45.4,29.83,South,184,5.2,12.2,37,0.00,,OVC190,0.00,VWS V14.01,2013-04-14 19:31:00,
2013-04-14 15:37:00,72.9,45.4,29.83,South,181,11.1,17.4,37,0.00,,OVC190,0.00,VWS V14.01,2013-04-14 19:37:00,
2013-04-14 15:42:00,73.0,45.5,29.83,South,189,5.9,12.2,37,0.00,,OVC240,0.00,VWS V14.01,2013-04-14 19:42:00,
2013-04-14 15:47:00,73.2,45.7,29.83,SSE,149,8.9,11.3,37,0.00,,OVC240,0.00,VWS V14.01,2013-04-14 19:47:00,
2013-04-14 15:52:00,73.2,45.7,29.83,South,172,8.1,13.2,37,0.00,,OVC240,0.00,VWS V14.01,2013-04-14 19:52:00,
2013-04-14 15:58:00,73.0,45.5,29.83,South,172,10.3,13.2,37,0.00,,OVC240,0.00,VWS V14.01,2013-04-14 19:58:00,
2013-04-14 16:03:00,73.0,45.5,29.83,SSE,163,8.1,13.2,37,0.00,,OVC240,0.00,VWS V14.01,2013-04-14 20:03:00,
2013-04-14 16:08:00,73.0,46.7,29.83,ENE,76,8.1,12.2,39,0.00,,OVC240,0.00,VWS V14.01,2013-04-14 20:08:00,
2013-04-14 16:13:00,72.9,46.5,29.83,SSE,156,5.9,10.3,39,0.00,,OVC240,0.00,VWS V14.01,2013-04-14 20:13:00,
2013-04-14 16:18:00,72.9,46.5,29.83,ESE,122,10.3,13.2,39,0.00,,OVC240,0.00,VWS V14.01,2013-04-14 20:18:00,
2013-04-14 16:23:00,72.7,46.4,29.83,ESE,113,6.6,13.2,39,0.00,,OVC240,0.00,VWS V14.01,2013-04-14 20:23:00,
2013-04-14 16:28:00,72.7,46.4,29.83,ESE,107,4.4,6.6,39,0.00,,OVC240,0.00,VWS V14.01,2013-04-14 20:28:00,
2013-04-14 16:34:00,72.7,46.4,29.83,ESE,110,13.7,17.4,39,0.00,,OVC240,0.00,VWS V14.01,2013-04-14 20:34:00,
2013-04-14 16:39:00,72.7,46.4,29.80,SSE,154,8.9,13.2,39,0.00,,OVC240,0.00,VWS V14.01,2013-04-14 20:39:00,
2013-04-14 16:44:00,72.5,46.2,29.80,East,99,9.6,16.9,39,0.00,,OVC220,0.00,VWS V14.01,2013-04-14 20:44:00,
2013-04-14 16:49:00,72.3,46.1,29.80,South,171,6.6,13.2,39,0.00,,OVC220,0.00,VWS V14.01,2013-04-14 20:49:00,
2013-04-14 16:54:00,72.1,45.9,29.80,SE,145,5.2,12.2,39,0.00,,OVC220,0.00,VWS V14.01,2013-04-14 20:54:00,
2013-04-14 17:00:00,72.1,45.9,29.80,ESE,122,8.1,10.3,39,0.00,,OVC220,0.00,VWS V14.01,2013-04-14 21:00:00,
2013-04-14 17:05:00,72.1,45.9,29.80,SSE,156,5.2,13.2,39,0.00,,OVC220,0.00,VWS V14.01,2013-04-14 21:05:00,
2013-04-14 17:10:00,72.1,45.9,29.80,SE,139,14.4,18.3,39,0.00,,OVC220,0.00,VWS V14.01,2013-04-14 21:10:00,
2013-04-14 17:15:00,72.1,45.9,29.80,SE,127,4.4,7.5,39,0.00,,OVC220,0.00,VWS V14.01,2013-04-14 21:15:00,
2013-04-14 17:21:00,72.0,45.8,29.80,ESE,104,8.1,11.3,39,0.00,,OVC220,0.00,VWS V14.01,2013-04-14 21:21:00,
2013-04-14 17:26:00,72.0,45.8,29.80,SE,134,5.2,13.2,39,0.00,,OVC220,0.00,VWS V14.01,2013-04-14 21:26:00,
2013-04-14 17:31:00,72.0,45.8,29.80,ESE,114,8.9,12.2,39,0.00,,OVC220,0.00,VWS V14.01,2013-04-14 21:31:00,
2013-04-14 17:36:00,72.0,45.8,29.80,SE,144,5.2,13.2,39,0.00,,OVC220,0.00,VWS V14.01,2013-04-14 21:36:00,
2013-04-14 17:41:00,72.0,45.8,29.80,SE,130,4.4,5.6,39,0.00,,OVC220,0.00,VWS V14.01,2013-04-14 21:41:00,
2013-04-14 17:47:00,72.1,45.9,29.80,SE,145,5.2,12.2,39,0.00,,OVC220,0.00,VWS V14.01,2013-04-14 21:47:00,
2013-04-14 17:52:00,72.1,45.9,29.80,ESE,122,5.9,11.3,39,0.00,,OVC220,0.00,VWS V14.01,2013-04-14 21:52:00,
2013-04-14 17:57:00,72.3,46.1,29.80,SSE,147,9.6,12.2,39,0.00,,OVC220,0.00,VWS V14.01,2013-04-14 21:57:00,
2013-04-14 18:02:00,72.3,46.1,29.80,SSE,157,8.9,11.3,39,0.00,,OVC220,0.00,VWS V14.01,2013-04-14 22:02:00,
2013-04-14 18:07:00,72.1,45.9,29.80,SSW,204,3.7,7.5,39,0.00,,OVC220,0.00,VWS V14.01,2013-04-14 22:07:00,
2013-04-14 18:13:00,72.0,45.8,29.80,SE,141,8.1,10.3,39,0.00,,OVC220,0.00,VWS V14.01,2013-04-14 22:13:00,
2013-04-14 18:18:00,71.8,45.6,29.80,SSE,156,12.5,16.0,39,0.00,,OVC220,0.00,VWS V14.01,2013-04-14 22:18:00,
2013-04-14 18:23:00,71.8,45.6,29.80,SSE,157,9.6,13.2,39,0.00,,OVC220,0.00,VWS V14.01,2013-04-14 22:23:00,
2013-04-14 18:28:00,71.6,45.4,29.80,SE,146,5.9,8.5,39,0.00,,OVC220,0.00,VWS V14.01,2013-04-14 22:28:00,
2013-04-14 18:33:00,71.6,45.4,29.80,East,88,6.6,8.5,39,0.00,,OVC220,0.00,VWS V14.01,2013-04-14 22:33:00,
2013-04-14 18:38:00,71.4,46.4,29.80,SSE,148,6.6,10.3,41,0.00,,OVC220,0.00,VWS V14.01,2013-04-14 22:38:00,
2013-04-14 18:43:00,71.2,46.2,29.80,SSE,159,5.9,7.5,41,0.00,,OVC220,0.00,VWS V14.01,2013-04-14 22:43:00,
2013-04-14 18:49:00,71.1,46.1,29.80,SE,133,6.6,12.2,41,0.00,,OVC220,0.00,VWS V14.01,2013-04-14 22:49:00,
2013-04-14 18:54:00,71.1,46.1,29.80,SE,145,5.9,7.5,41,0.00,,OVC220,0.00,VWS V14.01,2013-04-14 22:54:00,
2013-04-14 18:59:00,71.1,46.1,29.80,SSE,164,4.4,8.5,41,0.00,,OVC220,0.00,VWS V14.01,2013-04-14 22:59:00,
2013-04-14 19:04:00,71.1,46.1,29.80,SE,128,4.4,5.6,41,0.00,,OVC220,0.00,VWS V14.01,2013-04-14 23:04:00,
2013-04-14 19:10:00,71.1,46.1,29.80,South,174,9.6,12.2,41,0.00,,OVC220,0.00,VWS V14.01,2013-04-14 23:10:00,
2013-04-14 19:15:00,71.2,46.2,29.80,SSW,192,5.9,23.0,41,0.00,,OVC220,0.00,VWS V14.01,2013-04-14 23:15:00,
2013-04-14 19:20:00,71.4,45.3,29.80,SE,128,10.3,17.4,39,0.00,,OVC220,0.00,VWS V14.01,2013-04-14 23:20:00,
2013-04-14 19:25:00,71.6,45.4,29.80,SSE,158,14.4,18.3,39,0.00,,OVC220,0.00,VWS V14.01,2013-04-14 23:25:00,
2013-04-14 19:30:00,71.8,45.6,29.80,SSE,156,8.9,19.3,39,0.00,,OVC220,0.00,VWS V14.01,2013-04-14 23:30:00,
2013-04-14 19:35:00,72.0,45.8,29.80,SSW,195,10.3,13.2,39,0.00,,OVC220,0.00,VWS V14.01,2013-04-14 23:35:00,
2013-04-14 19:40:00,71.6,44.3,29.80,SE,140,16.6,22.1,37,0.00,,OVC220,0.00,VWS V14.01,2013-04-14 23:40:00,
2013-04-14 19:46:00,71.4,45.3,29.80,SSE,158,13.7,25.8,39,0.00,,OVC220,0.00,VWS V14.01,2013-04-14 23:46:00,
2013-04-14 19:51:00,71.1,44.9,29.80,South,176,8.9,11.3,39,0.00,,OVC220,0.00,VWS V14.01,2013-04-14 23:51:00,
2013-04-14 19:57:00,70.7,44.6,29.80,SSE,150,10.3,30.5,39,0.00,,OVC220,0.00,VWS V14.01,2013-04-14 23:57:00,
2013-04-14 20:02:00,70.5,44.5,29.80,SSE,162,9.6,16.0,39,0.00,,OVC220,0.00,VWS V14.01,2013-04-15 00:02:00,
2013-04-14 20:07:00,70.2,44.1,29.80,SSE,163,10.3,21.1,39,0.00,,SCT220,0.00,VWS V14.01,2013-04-15 00:07:00,
2013-04-14 20:12:00,69.8,43.8,29.80,SSE,148,8.9,11.3,39,0.00,,SCT220,0.00,VWS V14.01,2013-04-15 00:12:00,
2013-04-14 20:17:00,69.4,43.5,29.80,South,182,5.2,15.0,39,0.00,,SCT220,0.00,VWS V14.01,2013-04-15 00:17:00,
2013-04-14 20:22:00,69.1,43.2,29.80,SSE,168,4.4,10.3,39,0.00,,SCT220,0.00,VWS V14.01,2013-04-15 00:22:00,
2013-04-14 20:28:00,68.7,44.0,29.80,SSE,167,5.2,8.5,41,0.00,,SCT220,0.00,VWS V14.01,2013-04-15 00:28:00,
2013-04-14 20:33:00,68.4,43.6,29.80,South,172,4.4,8.5,41,0.00,,SCT220,0.00,VWS V14.01,2013-04-15 00:33:00,
2013-04-14 20:38:00,67.8,43.2,29.80,SE,145,3.7,4.7,41,0.00,,SCT220,0.00,VWS V14.01,2013-04-15 00:38:00,
2013-04-14 20:44:00,67.1,42.5,29.80,SSE,161,5.9,10.3,41,0.00,,SCT220,0.00,VWS V14.01,2013-04-15 00:44:00,
2013-04-14 20:49:00,66.9,42.3,29.80,South,187,5.9,8.5,41,0.00,,SCT220,0.00,VWS V14.01,2013-04-15 00:49:00,
2013-04-14 20:54:00,66.6,43.1,29.80,SE,130,9.6,17.4,42,0.00,,SCT220,0.00,VWS V14.01,2013-04-15 00:54:00,
2013-04-14 21:00:00,66.6,43.1,29.80,SSE,150,5.9,16.0,42,0.00,,SCT220,0.00,VWS V14.01,2013-04-15 01:00:00,
2013-04-14 21:05:00,66.4,42.9,29.80,South,179,6.6,11.3,42,0.00,,SCT220,0.00,VWS V14.01,2013-04-15 01:05:00,
2013-04-14 21:10:00,66.4,42.9,29.83,SSE,154,6.6,10.3,42,0.00,,SCT220,0.00,VWS V14.01,2013-04-15 01:10:00,
2013-04-14 21:15:00,66.2,42.8,29.83,South,182,5.2,8.5,42,0.00,,SCT220,0.00,VWS V14.01,2013-04-15 01:15:00,
2013-04-14 21:21:00,66.0,42.6,29.83,South,180,10.3,17.4,42,0.00,,SCT220,0.00,VWS V14.01,2013-04-15 01:21:00,
2013-04-14 21:26:00,65.8,42.4,29.83,SSE,157,5.9,8.5,42,0.00,,SCT220,0.00,VWS V14.01,2013-04-15 01:26:00,
2013-04-14 21:32:00,65.7,42.3,29.83,South,173,5.9,8.5,42,0.00,,SCT220,0.00,VWS V14.01,2013-04-15 01:32:00,
2013-04-14 21:37:00,65.1,42.8,29.83,SSE,154,5.9,14.1,44,0.00,,SCT220,0.00,VWS V14.01,2013-04-15 01:37:00,
2013-04-14 21:42:00,64.8,42.5,29.83,South,177,12.5,26.8,44,0.00,,SCT220,0.00,VWS V14.01,2013-04-15 01:42:00,
2013-04-14 21:47:00,64.9,42.6,29.83,SSW,208,8.1,16.9,44,0.00,,SCT220,0.00,VWS V14.01,2013-04-15 01:47:00,
2013-04-14 21:52:00,64.9,43.6,29.83,SSW,206,5.9,17.4,46,0.00,,SCT220,0.00,VWS V14.01,2013-04-15 01:52:00,
2013-04-14 21:57:00,64.8,43.5,29.86,South,183,18.1,23.0,46,0.00,,SCT220,0.00,VWS V14.01,2013-04-15 01:57:00,
2013-04-14 22:02:00,64.8,43.5,29.86,SW,217,12.5,17.4,46,0.00,,SCT220,0.00,VWS V14.01,2013-04-15 02:02:00,
2013-04-14 22:07:00,64.6,43.3,29.86,SSE,167,12.5,16.0,46,0.00,,SCT220,0.00,VWS V14.01,2013-04-15 02:07:00,
2013-04-14 22:13:00,64.4,44.1,29.86,South,184,15.9,20.2,48,0.00,,SCT220,0.00,VWS V14.01,2013-04-15 02:13:00,
2013-04-14 22:18:00,64.2,44.8,29.86,SSE,166,9.6,12.2,49,0.00,,SCT220,0.00,VWS V14.01,2013-04-15 02:18:00,
2013-04-14 22:23:00,63.9,44.5,29.86,SSE,156,9.6,14.1,49,0.00,,SCT220,0.00,VWS V14.01,2013-04-15 02:23:00,
2013-04-14 22:28:00,63.7,45.2,29.86,South,182,8.9,18.3,51,0.00,,SCT220,0.00,VWS V14.01,2013-04-15 02:28:00,
2013-04-14 22:33:00,63.5,45.1,29.86,South,179,13.3,16.9,51,0.00,,SCT220,0.00,VWS V14.01,2013-04-15 02:33:00,
2013-04-14 22:38:00,63.1,45.6,29.86,South,183,5.2,16.9,53,0.00,,SCT220,0.00,VWS V14.01,2013-04-15 02:38:00,
2013-04-14 22:44:00,63.0,46.3,29.86,SW,219,18.1,23.0,54,0.00,,FEW220,0.00,VWS V14.01,2013-04-15 02:44:00,
2013-04-14 22:49:00,62.8,46.9,29.86,SSE,168,5.9,11.3,56,0.00,,FEW220,0.00,VWS V14.01,2013-04-15 02:49:00,
2013-04-14 22:54:00,62.6,46.8,29.86,South,176,10.3,13.2,56,0.00,,FEW220,0.00,VWS V14.01,2013-04-15 02:54:00,
2013-04-14 22:59:00,62.4,47.4,29.86,South,169,9.6,16.0,58,0.00,,FEW220,0.00,VWS V14.01,2013-04-15 02:59:00,
2013-04-14 23:04:00,62.1,47.0,29.86,SSW,193,10.3,18.3,58,0.00,,FEW220,0.00,VWS V14.01,2013-04-15 03:04:00,
2013-04-14 23:09:00,61.9,46.9,29.86,ESE,105,13.3,20.2,58,0.00,,FEW220,0.00,VWS V14.01,2013-04-15 03:09:00,
2013-04-14 23:15:00,61.9,47.6,29.86,SW,218,13.7,22.1,60,0.00,,FEW220,0.00,VWS V14.01,2013-04-15 03:15:00,
2013-04-14 23:20:00,61.7,47.5,29.86,SE,138,10.3,22.1,60,0.00,,FEW220,0.00,VWS V14.01,2013-04-15 03:20:00,
2013-04-14 23:25:00,61.5,47.3,29.86,SE,140,10.3,13.2,60,0.00,,FEW220,0.00,VWS V14.01,2013-04-15 03:25:00,
2013-04-14 23:30:00,61.3,47.9,29.86,SE,135,13.3,16.9,61,0.00,,FEW220,0.00,VWS V14.01,2013-04-15 03:30:00,
2013-04-14 23:35:00,61.3,47.9,29.86,SSE,167,5.2,6.6,61,0.00,,FEW220,0.00,VWS V14.01,2013-04-15 03:35:00,
2013-04-14 23:40:00,61.0,47.5,29.86,SSE,151,5.9,12.2,61,0.00,,FEW220,0.00,VWS V14.01,2013-04-15 03:40:00,
2013-04-14 23:45:00,60.8,47.4,29.86,SSE,153,5.2,6.6,61,0.00,,SCT220,0.00,VWS V14.01,2013-04-15 03:45:00,
2013-04-14 23:50:00,60.4,47.8,29.86,SE,146,9.6,17.4,63,0.00,,SCT220,0.00,VWS V14.01,2013-04-15 03:50:00,
2013-04-14 23:55:00,60.3,48.3,29.86,East,84,8.9,11.3,65,0.00,,SCT220,0.00,VWS V14.01,2013-04-15 03:55:00,